Middlebury State AP, Middlebu, VT

4:44 PM EDT on April 25, 2017 (GMT -0400)
Middlebury State AP, Middlebu

Weather History for K6B0 - April, 2014

Change the Weather History Date:

Tuesday, April 1, 2014

  Actual Average (KRUT) Record (KRUT)
Temperature  
Mean Temperature 36 °F -  
Max Temperature 46 °F 51 °F 81 °F (1986)
Min Temperature 26 °F 29 °F 10 °F (1965)
Degree Days  
Heating Degree Days 29    
Moisture  
Dew Point 27 °F    
Average Humidity 75    
Maximum Humidity 97    
Minimum Humidity 46    
Precipitation  
Precipitation 0.00 in - - ()
Sea Level Pressure  
Sea Level Pressure 30.09 in    
Wind  
Wind Speed 5 mph (WNW)    
Max Wind Speed 9 mph    
Max Gust Speed -    
Visibility 10 miles    
Events      
Averages and records for this station are not official NWS values.
T = Trace of Precipitation, MM = Missing Value Source: NWS Daily Summary

Daily Weather History Graph

Daily Weather History Graph

Search for Another Location

Airport or City:

Trip Planner

Search our weather history database for the weather conditions in past years. The results will help you decide how hot, cold, wet, or windy it might be!

Date:

Astronomy

Apr. 01, 2014 Rise Set
Actual Time 6:33 AM EDT 7:19 PM EDT
Civil Twilight 6:04 AM EDT 7:48 PM EDT
Nautical Twilight 5:30 AM EDT 8:23 PM EDT
Astronomical Twilight 4:54 AM EDT 8:59 PM EDT
Moon 7:30 AM EDT (4/1) 9:44 PM EDT (4/1)
Length of Visible Light 13h 43m
Length of Day
12h 45m
Waxing Crescent, 4% of the Moon is Illuminated
Apr 1
Waxing Crescent
Apr 7
First Quarter
Apr 15
Full
Apr 22
Last Quarter
Apr 29
New

Hourly Weather History & Observations

Time (EDT) Temp. Windchill Dew Point Humidity Pressure Visibility Wind Dir Wind Speed Gust Speed Precip Events Conditions
12:15 AM 31.3 °F 25.6 °F 28.2 °F 88% 30.15 in 10.0 mi NW 5.8 mph - N/A   Clear
12:35 AM 31.5 °F 24.9 °F 28.0 °F 87% 30.15 in 10.0 mi WNW 6.9 mph - N/A   Clear
12:55 AM 31.1 °F 23.1 °F 28.0 °F 88% 30.15 in 10.0 mi West 9.2 mph - N/A   Clear
1:15 AM 30.9 °F 24.3 °F 27.5 °F 87% 30.15 in 10.0 mi WNW 6.9 mph - N/A   Clear
1:35 AM 30.7 °F 26.0 °F 27.5 °F 88% 30.15 in 10.0 mi NW 4.6 mph - N/A   Clear
2:15 AM 30.9 °F 23.5 °F 27.3 °F 86% 30.15 in 10.0 mi NW 8.1 mph - N/A   Clear
2:35 AM 30.6 °F 23.1 °F 27.1 °F 87% 30.14 in 10.0 mi NW 8.1 mph - N/A   Clear
2:55 AM 30.2 °F 25.4 °F 27.0 °F 88% 30.13 in 10.0 mi NNW 4.6 mph - N/A   Clear
3:15 AM 30.0 °F 24.1 °F 26.8 °F 88% 30.13 in 10.0 mi NW 5.8 mph - N/A   Clear
3:35 AM 29.3 °F 23.2 °F 26.6 °F 90% 30.13 in 10.0 mi NNW 5.8 mph - N/A   Clear
3:55 AM 28.6 °F - 26.6 °F 92% 30.14 in 10.0 mi Calm Calm - N/A   Clear
4:15 AM 28.2 °F 24.4 °F 26.4 °F 93% 30.14 in 10.0 mi WNW 3.5 mph - N/A   Clear
4:35 AM 27.5 °F - 26.2 °F 95% 30.14 in 10.0 mi Calm Calm - N/A   Clear
4:55 AM 27.3 °F 22.0 °F 25.9 °F 94% 30.13 in 10.0 mi NW 4.6 mph - N/A   Clear
5:15 AM 27.5 °F 20.2 °F 25.7 °F 93% 30.14 in 10.0 mi WNW 6.9 mph - N/A   Clear
5:35 AM 28.0 °F 21.7 °F 25.7 °F 91% 30.13 in 10.0 mi WNW 5.8 mph - N/A   Clear
5:55 AM 27.7 °F 19.6 °F 25.5 °F 92% 30.13 in 10.0 mi WNW 8.1 mph - N/A   Clear
6:15 AM 27.9 °F 21.5 °F 25.5 °F 91% 30.12 in 10.0 mi NW 5.8 mph - N/A   Clear
6:35 AM 27.3 °F 19.1 °F 25.5 °F 93% 30.13 in 10.0 mi NW 8.1 mph - N/A   Clear
6:55 AM 27.3 °F 20.9 °F 25.5 °F 93% 30.13 in 10.0 mi NW 5.8 mph - N/A   Clear
7:15 AM 27.1 °F 19.7 °F 25.2 °F 92% 30.14 in 10.0 mi NW 6.9 mph - N/A   Clear
7:35 AM 26.6 °F 21.2 °F 24.8 °F 93% 30.14 in 10.0 mi WNW 4.6 mph - N/A   Clear
7:55 AM 27.9 °F 21.5 °F 25.3 °F 90% 30.15 in 10.0 mi NW 5.8 mph - N/A   Clear
8:15 AM 28.6 °F 20.7 °F 24.8 °F 86% 30.15 in 10.0 mi NW 8.1 mph - N/A   Clear
8:35 AM 29.5 °F 21.1 °F 24.4 °F 81% 30.15 in 10.0 mi NW 9.2 mph - N/A   Clear
8:55 AM 30.7 °F 26.0 °F 24.8 °F 79% 30.15 in 10.0 mi WNW 4.6 mph - N/A   Clear
9:15 AM 31.1 °F 25.4 °F 23.4 °F 73% 30.15 in 10.0 mi West 5.8 mph - N/A   Clear
9:35 AM 32.0 °F 25.6 °F 23.4 °F 70% 30.15 in 10.0 mi West 6.9 mph - N/A   Clear
9:55 AM 32.4 °F 25.3 °F 23.5 °F 70% 30.14 in 10.0 mi West 8.1 mph - N/A   Clear
10:15 AM 33.1 °F 27.7 °F 23.2 °F 67% 30.14 in 10.0 mi West 5.8 mph - N/A   Clear
10:35 AM 34.2 °F 30.0 °F 23.4 °F 65% 30.14 in 10.0 mi West 4.6 mph - N/A   Clear
10:55 AM 34.9 °F 30.8 °F 23.2 °F 62% 30.14 in 10.0 mi WNW 4.6 mph - N/A   Clear
11:15 AM 35.8 °F 31.9 °F 23.5 °F 61% 30.14 in 10.0 mi West 4.6 mph - N/A   Clear
11:35 AM 36.5 °F 31.8 °F 24.4 °F 62% 30.13 in 10.0 mi West 5.8 mph - N/A   Clear
11:55 AM 37.6 °F 34.0 °F 24.1 °F 58% 30.13 in 10.0 mi WNW 4.6 mph - N/A   Clear
12:15 PM 37.8 °F 34.2 °F 25.2 °F 60% 30.12 in 10.0 mi West 4.6 mph - N/A   Clear
12:35 PM 38.8 °F 34.6 °F 25.0 °F 58% 30.12 in 10.0 mi WNW 5.8 mph - N/A   Clear
12:55 PM 39.9 °F 36.7 °F 25.2 °F 56% 30.11 in 10.0 mi SSW 4.6 mph - N/A   Clear
1:15 PM 40.5 °F 36.5 °F 27.1 °F 59% 30.10 in 10.0 mi WNW 5.8 mph - N/A   Clear
1:35 PM 41.0 °F 39.0 °F 25.9 °F 55% 30.09 in 10.0 mi NW 3.5 mph - N/A   Clear
1:55 PM 42.1 °F 39.2 °F 26.8 °F 55% 30.08 in 10.0 mi WNW 4.6 mph - N/A   Clear
2:15 PM 42.1 °F 37.7 °F 26.6 °F 54% 30.08 in 10.0 mi West 6.9 mph - N/A   Clear
2:35 PM 42.8 °F - 26.2 °F 52% 30.07 in 10.0 mi Calm Calm - N/A   Clear
2:55 PM 43.3 °F - 26.8 °F 52% 30.06 in 10.0 mi Calm Calm - N/A   Clear
3:15 PM 43.7 °F 41.1 °F 27.3 °F 53% 30.05 in 10.0 mi NW 4.6 mph - N/A   Clear
3:35 PM 44.6 °F 43.1 °F 27.0 °F 50% 30.05 in 10.0 mi SW 3.5 mph - N/A   Clear
3:55 PM 44.8 °F 43.3 °F 26.1 °F 48% 30.05 in 10.0 mi West 3.5 mph - N/A   Clear
4:15 PM 45.5 °F - 26.2 °F 47% 30.04 in 10.0 mi Calm Calm - N/A   Clear
4:35 PM 45.3 °F - 27.1 °F 49% 30.03 in 10.0 mi Calm Calm - N/A   Clear
4:55 PM 46.0 °F - 26.4 °F 46% 30.03 in 10.0 mi Calm Calm - N/A   Clear
5:15 PM 44.6 °F - 27.3 °F 51% 30.02 in 10.0 mi Calm Calm - N/A   Clear
5:35 PM 45.7 °F - 26.4 °F 47% 30.02 in 10.0 mi Calm Calm - N/A   Clear
5:55 PM 44.2 °F - 28.0 °F 53% 30.01 in 10.0 mi Calm Calm - N/A   Clear
6:15 PM 41.2 °F 36.6 °F 28.8 °F 61% 30.01 in 10.0 mi WNW 6.9 mph - N/A   Clear
6:35 PM 39.9 °F 36.7 °F 28.8 °F 64% 30.00 in 10.0 mi WNW 4.6 mph - N/A   Clear
6:55 PM 38.8 °F 36.5 °F 28.8 °F 67% 30.00 in 10.0 mi WNW 3.5 mph - N/A   Clear
7:15 PM 37.2 °F - 28.9 °F 72% 30.00 in 10.0 mi Calm Calm - N/A   Clear
7:35 PM 36.9 °F - 27.7 °F 69% 30.01 in 10.0 mi Calm Calm - N/A   Clear
7:55 PM 35.6 °F - 30.2 °F 81% 30.02 in 10.0 mi Calm Calm - N/A   Clear
8:15 PM 35.8 °F - 28.4 °F 75% 30.02 in 10.0 mi Calm Calm - N/A   Clear
8:35 PM 35.2 °F - 30.6 °F 83% 30.02 in 10.0 mi Calm Calm - N/A   Clear
8:55 PM 34.7 °F - 32.0 °F 90% 30.03 in 10.0 mi Calm Calm - N/A   Clear
9:15 PM 34.9 °F - 30.7 °F 85% 30.04 in 10.0 mi Calm Calm - N/A   Clear
9:35 PM 35.1 °F - 30.6 °F 84% 30.02 in 10.0 mi Calm Calm - N/A   Clear
9:55 PM 34.7 °F - 30.7 °F 85% 30.00 in 10.0 mi Calm Calm - N/A   Clear
10:15 PM 34.7 °F - 30.0 °F 83% 30.00 in 10.0 mi Calm Calm - N/A   Clear
10:35 PM 34.0 °F - 31.6 °F 91% 30.00 in 10.0 mi Calm Calm - N/A   Clear
10:55 PM 33.8 °F - 31.3 °F 90% 30.01 in 10.0 mi Calm Calm - N/A   Clear
11:15 PM 33.1 °F - 30.0 °F 89% 30.01 in 10.0 mi Calm Calm - N/A   Clear
11:35 PM 32.5 °F 29.3 °F 31.5 °F 96% 30.00 in 10.0 mi East 3.5 mph - N/A   Clear
11:55 PM 32.7 °F 29.6 °F 32.0 °F 97% 29.99 in 10.0 mi ESE 3.5 mph - N/A   Clear